Regional Weather Roundup
Issued by NWS

Home | Current Version | Previous Version | Graphics & Text | Print | Product List | Glossary On
Versions: 1 2 3 4 5 6 7 8 9 10 11 12 13 14 15 16 17 18 19 20 21 22 23 24 25 26 27 28 29 30 31 32 33 34 35 36 37 38 39 40 41 42 43 44 45 46 47 48 49 50
000
ASUS43 KMPX 300801
RWRMN
WEATHER ROUNDUP FOR MINNESOTA
NATIONAL WEATHER SERVICE TWIN CITIES/CHANHASSEN MN
300 AM CDT TUE JUN 30 2015


NOTE: "FAIR" INDICATES FEW OR NO CLOUDS BELOW 12,000 FEET WITH NO
SIGNIFICANT WEATHER AND/OR OBSTRUCTIONS TO VISIBILITY. N/A MEANS
CURRENT SKY AND/OR WEATHER CONDITIONS ARE NOT AVAILABLE.

MNZ060>063-068>070-300900-
   Twin Cities Metro

CITY           SKY/WX    TMP DP  RH WIND       PRES   REMARKS
TWIN CITIES    CLEAR     64  62  93 CALM      29.85S
ST PAUL        MOCLDY    64  62  93 CALM      29.85R FOG
CRYSTAL        CLEAR     63  60  90 NW3       29.84S FOG
BLAINE         CLEAR     63  63 100 N3        29.86R
LAKEVILLE      PTCLDY    59  59 100 W1        29.85S
EDEN PRAIRIE   CLEAR     64  62  93 N6        29.84S FOG
SOUTH ST PAUL  CLEAR     64  62  94 CALM      29.85R
LAKE ELMO      CLOUDY    61  61 100 CALM      29.86R FOG
$$
MNZ001>005-007-008-013>017-022>024-027-028-300900-
   Northwest Minnesota

CITY           SKY/WX    TMP DP  RH WIND       PRES   REMARKS
BEMIDJI        CLEAR     55  53  94 CALM      29.93S
HALLOCK        CLEAR     55  54  94 CALM      29.95R
ROSEAU         CLEAR     55  50  82 CALM      29.96S
WARROAD        CLEAR     64  57  77 E10       29.96S
THIEF RVR FALL CLEAR     61  57  88 N3        29.95S
CROOKSTON      CLEAR     55  54  94 CALM        N/A
FOSSTON        CLEAR     54  52  94 CALM      29.95S
DETROIT LAKES  CLEAR     63  57  82 N3        29.95S
MOORHEAD       PTCLDY    57  57 100 CALM      29.94S
PARK RAPIDS    CLEAR     58  55  90 NW3       29.93S
MAHNOMEN       FAIR      56  55  97 CALM      29.94S
$$
MNZ006-009>011-018-025>026-300900-
   North Central Minnesota

CITY           SKY/WX    TMP DP  RH WIND       PRES   REMARKS
BAUDETTE       CLEAR     56  52  86 NE3       29.95R
FLAG ISLAND    CLEAR     61  54  77 E3        29.95S
INTL FALLS     PTCLDY    55  51  86 NE5       29.94F
WASKISH        CLEAR     57  54  88 NE7       29.95R
BIG FORK       CLEAR     55  54  94 CALM      29.94S
LONGVILLE      CLEAR     55  55 100 N3        29.92S FOG
GRAND RAPIDS   CLEAR     57  54  88 N5        29.92S
CRANE LAKE     CLOUDY    54  52  94 N5        29.95S
COOK           CLEAR     54  52  94 NE5       29.93F
WALKER         FAIR      55  53  96 CALM      29.93R
$$
MNZ012-019>021-037-300900-
   Northeast Minnesota

CITY           SKY/WX    TMP DP  RH WIND       PRES   REMARKS
DULUTH         MOCLDY    61  56  83 NE6       29.89R
ELY            CLOUDY    57  52  82 N5        29.92S
HIBBING        CLEAR     56  54  93 N3        29.91S
EVELETH        CLEAR     57  54  88 N6        29.92S
DULUTH HARBOR  CLOUDY    63  61  94 NE9       29.88S
GRAND MARAIS     N/A     56  51  84 VRB5      29.87R
G MARAIS ARPRT CLOUDY    52  46  82 N12G21    29.91S
$$
MNZ029>031-032-039>041-046>048-054>057-064-300900-
   West Central Minnesota

CITY           SKY/WX    TMP DP  RH WIND       PRES   REMARKS
FERGUS FALLS   PTCLDY    63  63 100 NE3       29.92S
WHEATON        MOCLDY    61  59  94 N3        29.93S
MORRIS         PTCLDY    63  61  94 N6        29.90S FOG
ALEXANDRIA     CLEAR     64  60  87 NE7       29.94R
ELBOW LAKE     FAIR      63  62  98 NE3       29.92S
WADENA         CLEAR     57  55  94 CALM      29.93S
GLENWOOD       CLEAR     64  61  88 N7        29.92S
APPLETON       PTCLDY    64  61  88 N5        29.89F
BENSON         PTCLDY    63  61  94 N3        29.90S FOG
ORTONVILLE     MOCLDY    64  61  88 N5        29.91S
MADISON        MOCLDY    63  61  94 W6        29.90S
WILLMAR        FAIR      64  63  94 N5        29.90S
$$
MNZ033>034-036-042>043-049>051-058-059-300900-
   Central Minnesota

CITY           SKY/WX    TMP DP  RH WIND       PRES   REMARKS
ST CLOUD       CLEAR     60  58  92 N3        29.89R
SAUK CENTRE    FAIR      62  59  90 N3        29.92R
PAYNESVILLE    CLEAR     61  60  95 NW6       29.91R
AITKIN         HAZE      52  46  82 CALM      29.89S VSB 1/2
PINE RIVER     CLEAR     57  55  94 CALM      29.95S
BRAINERD       CLEAR     60  56  86 CALM      29.92R
STAPLES        CLEAR     57  55  94 CALM      29.93R
LONG PRAIRIE   FAIR      61  57  88 N3        29.92S
LITTLE FALLS   CLEAR     61  55  82 CALM      29.91R
LITCHFIELD     CLEAR     64  64 100 N5        29.89S
BUFFALO        CLEAR     64  58  81 N3        29.88S
MAPLE LAKE     CLEAR     64  61  91 N3        29.89R
$$
MNZ037-044-045-052-053-300900-
   East Central Minnesota

CITY           SKY/WX    TMP DP  RH WIND       PRES   REMARKS
PRINCETON      CLEAR     63  61  94 N7        29.88S
MORA           PTCLDY    59  55  88 CALM      29.90R
CAMBRIDGE      CLEAR     64  55  72 CALM      29.86R
MOOSE LAKE     PTCLDY    59  59 100 NE5       29.87R
HINCKLEY       FAIR      61  59  94 N6        29.88R
CLOQUET        CLEAR     57  54  88 N5        29.89S
MCGREGOR       CLEAR     59  55  88 NW3       29.90S
$$
MNZ071>073-080-081-089-090-097-098-300900-
   Southwest Minnesota

CITY           SKY/WX    TMP DP  RH WIND       PRES   REMARKS
MONTEVIDEO     PTCLDY    63  61  94 N5        29.90F
GRANITE FALLS  CLOUDY    64  62  96 NW6       29.91S
CANBY          MOCLDY    63  60  91 W5        29.92S
MARSHALL       PTCLDY    63  57  82 NW6       29.90F
REDWOOD FALLS  CLEAR     65  63  93 NW6       29.88S
OLIVIA         CLEAR     61  57  88 NW5       29.88S
PIPESTONE      MOCLDY    64  61  88 NE3       29.92F
WINDOM         CLEAR     64  63  94 NW8       29.90S
WORTHINGTON    CLOUDY    63  57  82 NW6       29.91F
JACKSON        CLEAR     63  63 100 NW6       29.90F
TRACY          CLOUDY    65  64  94 NW5       29.91S
SLAYTON        PTCLDY    62  61  98 CALM      29.93S
$$
MNZ065>067-074>077-082>085-091>093-300900-
   South Central Minnesota

CITY           SKY/WX    TMP DP  RH WIND       PRES   REMARKS
MANKATO        CLEAR     66  63  88 NW8       29.85S
NEW ULM        CLEAR     63  63 100 NW5       29.87S
ST JAMES       CLEAR     66  64  94 W7        29.88F
FAIRMONT       CLEAR     66  59  77 NW8       29.88S
GLENCOE        CLEAR     66  63  92 NW3       29.86R
FARIBAULT      CLEAR     57  57 100 CALM      29.85S FOG
OWATONNA       CLEAR     59  55  88 CALM      29.85S FOG
WASECA         CLEAR     63  61  94 CALM      29.86S
ALBERT LEA     CLEAR     64  63  94 CALM      29.85S FOG
$$
MNZ078>079-086>088-094>096-300900-
   Southeast Minnesota

CITY           SKY/WX    TMP DP  RH WIND       PRES   REMARKS
ROCHESTER      CLEAR     59  57  93 W5        29.85F
RED WING       MOCLDY    59  57  94 CALM      29.83S FOG
DODGE CENTER   CLEAR     61  57  88 CALM      29.85F
WINONA         CLOUDY    59  59 100 NW3       29.84S FOG
AUSTIN         CLEAR     59  55  88 CALM      29.84S
PRESTON        CLEAR     59  56  90 CALM      29.86S
$$
ABBREVIATIONS USED IN REMARKS
   TC - TEMPERATURES IN CELSIUS
  WCI - WIND CHILL INDEX
   HX - HEAT INDEX
  VSB - VISIBILITY
$$


USA.gov is the U.S. government's official web portal to all federal, state and local government web resources and services.